Résultats de la compétition "CF Longue Distance" du 25-08-2007 organisée par la ligue MP
     
  Télécharger le fichier CSV.  
     
     

 Circuit "Bbis"

Licence Nom Prénom Temps CN
précédent
Score sur
la course
Différence
4837D'HARREVILLEKarine1:09:51N/A6310N/A
8837HULSERaymond1:13:23N/A6006N/A
8422VUITTONChristophe1:15:54N/A5807N/A
3134LALEVEEJ-Charles1:16:1955055775+270
2409POGUPhilippe1:17:0849035714+811
9365BARLETGaelle1:17:48N/A5665N/A
8354OBSTETARMarc1:18:16N/A5631N/A
2321DENAIXMichel1:20:2053325486+154
787MASONIBruno1:27:1055775056-521
1947POULAINJoel1:27:2551345042-92
18094DE RAMBURESAlbéric1:27:43N/A5024N/A
3101LONGAAlain1:29:3747294918+189
1658SPANIERLuc1:30:0343334894+561
7702RORAJose1:30:40N/A4861N/A
8253MIOTTOElodie1:30:54N/A4848N/A
8727GAILLARDAmbre1:31:31N/A4816N/A
13217VERCELLOTTILea1:34:01N/A4688N/A
7877VANDEWEEGHEVincent1:35:42N/A4605N/A
12558DUBOISPhilippe1:35:43N/A4604N/A
890GODEFROYRene1:37:0545314540+9
1808GUTSCHENRITTERGuy1:37:0951904537-653
1910MEYERJ-Marc1:37:3149624519-443
8104ABELCelie-Anne1:38:40N/A4467N/A
9927MARTINJ-Charles1:39:10N/A4444N/A
312JOLYThierry1:39:1147694444-325
18306MONNOTGilbert1:39:18N/A4438N/A
2759PAPILLONCecile1:40:1249014398-503
3546GIBIATFrederic1:40:4543344374+40
11440DUPOIRIEUXGilles1:41:38N/A4336N/A
7092MENGINRoland1:41:55N/A4324N/A
2372DIETSCHBernard1:42:4450374290-747
8947BOULANGERPatrick1:43:14N/A4269N/A
9460MONTEMONTPatrice1:43:15N/A4269N/A
14310RAOUXPierre1:44:44N/A4208N/A
11382VERDINSerge1:45:10N/A4191N/A
8240RAYMONDAUDJacques1:45:35N/A4174N/A
10034FABREMichel1:46:07N/A4153N/A
4470DUPRONPascal1:46:2746224140-482
3991MOLINIERLea1:48:1051874074-1113
8744MARIONJ-Marc1:51:13N/A3963N/A
13245POYARDJ-Claude1:51:55N/A3938N/A
12055POUPARDAlain1:53:52N/A3871N/A
10499LENNHOLMMorten1:57:04N/A3765N/A
15498GIRARDRegis1:58:53N/A3707N/A
7301DUPOIRIEUXCloe1:59:09N/A3699N/A
15322AVIRONMichel1:59:50N/A3678N/A
10517ROGERJ-Pierre2:00:49N/A3648N/A
12963CASTIERPhilippe2:06:30N/A3484N/A
6256FABREGATPascal2:08:13N/A3437N/A
17159SARIONPhilippe2:10:54N/A3367N/A
5137AVEDIKIANNicolas2:11:17N/A3357N/A
14947JOUVEBernard2:12:58N/A3315N/A
7854BOUDETJ-Marc2:14:12N/A3284N/A
1850GARRECChristian2:14:4428853271+386
7388PORNETPatrick2:17:27N/A3206N/A
10367SIAUDPhilippe2:19:15N/A3165N/A
465LOPEZAlain2:20:0039123148-764
15384MARIEKarl2:21:29N/A3115N/A
17585RAULTPatrick2:26:10N/A3015N/A
10744MAINELaurent2:26:42N/A3004N/A
13619GADEAUGerard2:31:21N/A2912N/A
11088LE BORGNEPascal2:31:45N/A2904N/A
11443PASQUIERMarc2:35:54N/A2827N/A
9423BACHELETPatrice2:44:05N/A2686N/A
15923FRANQUINPascal2:50:08N/A2590N/A
7945PERROCHONMichelN/AN/A0N/A
11141VIREFLEAUJ-MarieN/AN/A0N/A
11472LACASSINRobinN/AN/A0N/A
12725PERCHERobertN/AN/A0N/A
17080SCHAMBERGERDanielN/AN/A0N/A
1593DELENNEPierreN/A58360-5836

  Indice de confiance du circuit (moyenne des différences entre CN et score sur la course des 3 à 10 premiers) : 123






 Retour